DECAYED

CZ-6A DEB, 61106 (Decayed)

Orbit data source: Space-Track

CZ-6A DEB, 61106 was space debris in LEO originally from a launch on Tue, 06 Aug 2024 UTC launched from the Taiyaun Space Center, China (TSC). Debris objects in space refer to the collection of defunct objects orbiting the Earth. Examples of debris include non-operational satellites, rocket bodies, and fragments generated from explosions, collisions, or faulty payload assembly.

Not visible in the next 10 days
Identifier
61106, 2024-140NY
Orbit
Decayed
Country
Flag of CNCN / PRC
Related business
Manufacturer
SAST
Mission
Decayed spacecraft
Bus & Motor
Unknown
Mass
Unknown
Launch date (UTC)
2024-08-06 (2 years ago)
Launch vehicle
Unknown
Launch site
Taiyaun Space Center, China (TSC)
Object type
Payload
Rocket body
Debris
Shape & HBR
Unknown shape, 0.1 m
Radar Cross Section
Small (<0.1 m²)

Expand to show TLE details & history
Last TLE update: 6 months ago

TLE from 6 months ago
0 CZ-6A DEB
1 61106U 24140NY  25315.97239590  .01796154  00000-0  22043-1 0  9990
2 61106  88.9644 293.1300 0023813 167.6310 192.5546 15.56993291 65186
Epoch: 2025-11-11T23:20Z
TLE epoch observation values (Epoch: 2025-11-11T23:20:15.005Z)
Latitude
0.00001°
Longitude
-108.2838°
Altitude
415.363 km
Speed
7.653 km/s
True Right ascension
19h 32m 31s
True Declination
0° 00' 00"
Sunlit
Object was in daylight at epoch
Visualization orbit readout
Latitude
Unknown
Longitude
Unknown
Altitude
Unknown
Speed
Unknown
Apparent Right ascension
Unknown
Apparent Declination
Unknown
Sunlit
N/A
Visualization observer readout
Local Sidereal Time
10:12:24
Azimuth
Unknown
Elevation
Unknown
Doppler factor
Unknown
Orbital elements
Apogee altitude
409.247 km
Perigee altitude
376.998 km
Semi-major axis
6,771.26 km
Eccentricity
0.00238
Inclination
88.9644°
RAAN
293.13°
Arg. of periapsis
167.631°
True anomaly
192.49546°
Mean anomaly
192.5546°
Eccentric anomaly
192.52501°
Mean motion
3.89528 °/min
Orbital period
92.42 mins
BSTAR
0.022043
Loading maneuver chart data...
Computing Atmospheric mass density...

Documentation

Showing up to 5 results
|